User: anonymous   Login
Location: El Mouella
(16.4949°N, 9.1594°W)
Time: 13:41:26
(UTC+00:00)
Language:

H-2A R/B - Orbit

View from above orbital plane
View from above orbital plane
View from above satellite
View from above satellite

Ground track
Ground track

The orbit data is extracted from the following two-line orbital elements,

1 27601U 02056E   20218.35895998  .00000044  00000-0  30354-4 0  9995
2 27601  98.2230 251.6084 0073156 131.3815 239.7483 14.31961641921680
Epoch (UTC): 05 August 2020 08:36:54
Eccentricity: 0.0073156
inclination: 98.2230°
perigee height: 733 km
apogee height: 837 km
right ascension of ascending node: 251.6084°
argument of perigee: 131.3815°
revolutions per day: 14.31961641
mean anomaly at epoch: 239.7483°
orbit number at epoch: 92168

The dashed part of the orbit path shows where the satellite is in the earth's shadow,  

DLR